Location: ??????
(55.2000°N, 38.3000°E)
Time: 07:42:43
(UTC+00:00)

NOSS 3-2 (C) - Pass Details

Date: 15 November 2025
Orbit: 674 x 1535 km, 63.4° (Epoch: 13 November)

Event Time Altitude Azimuth Distance (km) Brightness Sun altitude
Exits shadow 02:59:05 19° 311° (NW) 2,259 4.9 -16.9°
Maximum altitude 03:04:09 66° 30° (NNE) 1,264 4.1 -16.1°
Drops below altitude 10° 03:12:22 10° 113° (ESE) 3,404 7.6 -15.0°
Sets 03:15:32 0° 116° (ESE) 4,478 8.6 -14.5°
